DAL2884 KMSP-KBWI

Flight info

Callsign DAL2884
Flight time N/A
Altitude 35000
Route COULT7 DLL J34 DJB DCT NUSMM ANTHM5
Aircraft MD88/M-SDFGIRWY/S

Departure

Time 2026-05-07 14:07
Airport Minneapolis–Saint Paul International Airport / Wold–Chamberlain Field (KMSP)

Arrival

Time N/A
Airport Baltimore/Washington International Thurgood Marshall Airport (KBWI)
Time Latitude Longitude Altitude Speed Heading
2026-05-07 13:33 44.88396 -93.21453 826 ft 0 kts 219°
2026-05-07 13:55 44.88404 -93.21443 826 ft 4 kts 219°
2026-05-07 13:56 44.88421 -93.21424 823 ft 4 kts 223°
2026-05-07 13:56 44.88434 -93.21398 826 ft 4 kts 262°
2026-05-07 13:56 44.88430 -93.21371 826 ft 4 kts 293°
2026-05-07 13:56 44.88422 -93.21346 826 ft 0 kts 293°
2026-05-07 14:01 44.88423 -93.21347 826 ft 1 kts 293°
2026-05-07 14:01 44.88423 -93.21348 826 ft 0 kts 293°
2026-05-07 14:01 44.88430 -93.21372 824 ft 9 kts 293°
2026-05-07 14:02 44.88477 -93.21484 824 ft 14 kts 307°
2026-05-07 14:02 44.88560 -93.21538 822 ft 14 kts 359°
2026-05-07 14:02 44.88661 -93.21451 826 ft 18 kts 44°
2026-05-07 14:02 44.88750 -93.21320 825 ft 19 kts 45°
2026-05-07 14:03 44.88762 -93.21166 823 ft 19 kts 116°
2026-05-07 14:03 44.88677 -93.20966 822 ft 27 kts 122°
2026-05-07 14:03 44.88569 -93.20721 824 ft 30 kts 122°
2026-05-07 14:03 44.88462 -93.20473 823 ft 29 kts 121°
2026-05-07 14:04 44.88360 -93.20230 823 ft 28 kts 120°
2026-05-07 14:04 44.88258 -93.19995 826 ft 28 kts 122°
2026-05-07 14:04 44.88155 -93.19766 824 ft 27 kts 122°
2026-05-07 14:04 44.88071 -93.19575 823 ft 17 kts 119°
2026-05-07 14:05 44.88099 -93.19441 823 ft 14 kts 35°
2026-05-07 14:05 44.88155 -93.19466 823 ft 0 kts 302°
2026-05-07 14:06 44.88192 -93.19559 821 ft 35 kts 300°
2026-05-07 14:07 44.88443 -93.20130 825 ft 104 kts 302°
2026-05-07 14:07 44.88934 -93.21265 827 ft 164 kts 302°
2026-05-07 14:07 44.89587 -93.22759 1186 ft 191 kts 301°
2026-05-07 14:07 44.90207 -93.24143 2189 ft 181 kts 305°
2026-05-07 14:08 44.91204 -93.25133 3109 ft 184 kts 350°
2026-05-07 14:08 44.92475 -93.24624 3830 ft 205 kts 37°
2026-05-07 14:08 44.93299 -93.22875 4334 ft 227 kts 62°
2026-05-07 14:08 44.94029 -93.20765 4973 ft 246 kts 69°
2026-05-07 14:09 44.94168 -93.18307 5375 ft 272 kts 105°
2026-05-07 14:09 44.93457 -93.15776 6112 ft 281 kts 115°
2026-05-07 14:09 44.92638 -93.13222 6952 ft 289 kts 114°
2026-05-07 14:09 44.91790 -93.10584 7814 ft 295 kts 115°
2026-05-07 14:10 44.90910 -93.07973 8660 ft 302 kts 116°
2026-05-07 14:10 44.89980 -93.05286 9563 ft 307 kts 116°
2026-05-07 14:10 44.89024 -93.02542 10227 ft 319 kts 117°
2026-05-07 14:10 44.87997 -92.99601 10379 ft 349 kts 116°
2026-05-07 14:11 44.86854 -92.96434 10592 ft 376 kts 118°
2026-05-07 14:11 44.85571 -92.93141 11185 ft 387 kts 120°
2026-05-07 14:11 44.84237 -92.89825 12134 ft 389 kts 120°
2026-05-07 14:11 44.82878 -92.86509 13115 ft 392 kts 119°
2026-05-07 14:12 44.81495 -92.83165 13959 ft 398 kts 120°
2026-05-07 14:12 44.80080 -92.79789 14751 ft 401 kts 120°
2026-05-07 14:12 44.78619 -92.76419 15525 ft 405 kts 123°
2026-05-07 14:12 44.77011 -92.73133 16199 ft 411 kts 123°
2026-05-07 14:13 44.75544 -92.69655 16962 ft 414 kts 116°
2026-05-07 14:13 44.74343 -92.65970 17742 ft 417 kts 111°
2026-05-07 14:13 44.73297 -92.62141 18446 ft 421 kts 109°
2026-05-07 14:13 44.72316 -92.58240 19091 ft 424 kts 107°
2026-05-07 14:14 44.71370 -92.54302 19793 ft 426 kts 107°
2026-05-07 14:14 44.70421 -92.50345 20449 ft 430 kts 110°
2026-05-07 14:14 44.69003 -92.46624 21064 ft 435 kts 123°
2026-05-07 14:14 44.67265 -92.43131 21728 ft 437 kts 126°
2026-05-07 14:15 44.65448 -92.39675 22357 ft 441 kts 126°
2026-05-07 14:15 44.63600 -92.36204 22941 ft 445 kts 126°
2026-05-07 14:15 44.61770 -92.32763 23533 ft 448 kts 126°
2026-05-07 14:15 44.59918 -92.29238 24000 ft 451 kts 125°
2026-05-07 14:16 44.58064 -92.25663 24445 ft 455 kts 125°
2026-05-07 14:16 44.56180 -92.21985 24880 ft 460 kts 125°
2026-05-07 14:16 44.54330 -92.18379 25301 ft 464 kts 125°
2026-05-07 14:16 44.52434 -92.14703 25703 ft 467 kts 125°
2026-05-07 14:17 44.50518 -92.10997 26049 ft 472 kts 126°
2026-05-07 14:17 44.48589 -92.07257 26466 ft 475 kts 125°